| time (UTC) | temp C | wind direction | speed KPH | gust KPH | rain 1hr cm | rain 24hr cm | rain mn cm | humidity % | barometer mb |
| 20260503030033 | 8 | 24 | 1.6 | 6.4 | 0.00 | 0.03 | 0.03 | 77 | 1014.7 |
| 20260503024526 | 8 | 0 | 1.6 | 14.5 | 0.00 | 0.03 | 0.03 | 76 | 1014.8 |
| 20260503021523 | 8 | 317 | 6.4 | 19.3 | 0.00 | 0.03 | 0.03 | 72 | 1015.0 |
| 20260503014519 | 8 | 0 | 1.6 | 8.0 | 0.00 | 0.03 | 0.03 | 74 | 1014.7 |
| 20260503013018 | 8 | 337 | 1.6 | 8.0 | 0.00 | 0.03 | 0.03 | 75 | 1014.6 |
| 20260503010027 | 8 | 0 | 3.2 | 11.3 | 0.00 | 0.03 | 0.03 | 74 | 1014.7 |
| 20260503004518 | 8 | 358 | 6.4 | 16.1 | 0.00 | 0.03 | 0.03 | 73 | 1014.7 |
| 20260502234511 | 8 | 340 | 9.7 | 20.9 | 0.03 | 0.03 | 0.03 | 75 | 1015.4 |
| 20260502233010 | 8 | 333 | 9.7 | 11.3 | 0.03 | 0.03 | 0.03 | 77 | 1015.6 |
| 20260502231512 | 8 | 32 | 0.0 | 3.2 | 0.03 | 0.03 | 0.03 | 78 | 1015.7 |
| 20260502230009 | 8 | 55 | 0.0 | 11.3 | 0.03 | 0.03 | 0.03 | 77 | 1015.8 |
| 20260502221507 | 10 | 0 | 1.6 | 4.8 | 0.00 | 0.00 | 0.00 | 66 | 1016.1 |
| 20260502220007 | 10 | 207 | 0.0 | 4.8 | 0.00 | 0.00 | 0.00 | 63 | 1015.9 |
| 20260502213007 | 10 | 44 | 0.0 | 0.0 | 0.00 | 0.00 | 0.00 | 56 | 1016.1 |
| 20260502211504 | 10 | 355 | 0.0 | 1.6 | 0.00 | 0.00 | 0.00 | 56 | 1016.1 |
| 20260502204536 | 10 | 6 | 0.0 | 3.2 | 0.00 | 0.00 | 0.00 | 55 | 1016.2 |
| 20260502203004 | 10 | 69 | 1.6 | 3.2 | 0.00 | 0.00 | 0.00 | 54 | 1016.2 |
| 20260502201525 | 10 | 166 | 0.0 | 6.4 | 0.00 | 0.00 | 0.00 | 53 | 1016.3 |
| 20260502200004 | 10 | 30 | 1.6 | 9.7 | 0.00 | 0.00 | 0.00 | 52 | 1016.5 |
| 20260502194505 | 10 | 348 | 3.2 | 8.0 | 0.00 | 0.00 | 0.00 | 51 | 1016.5 |
| 20260502181504 | 11 | 4 | 3.2 | 14.5 | 0.00 | 0.00 | 0.00 | 50 | 1016.1 |
| 20260502163004 | 12 | 0 | 9.7 | 25.7 | 0.00 | 0.00 | 0.00 | 46 | 1015.8 |
| 20260502161504 | 12 | 32 | 9.7 | 32.2 | 0.00 | 0.00 | 0.00 | 44 | 1015.8 |
| 20260502151506 | 12 | 8 | 8.0 | 30.6 | 0.00 | 0.00 | 0.00 | 46 | 1016.2 |
| 20260502123006 | 13 | 11 | 14.5 | 27.4 | 0.00 | 0.00 | 0.00 | 45 | 1016.4 |
| 20260502114506 | 13 | 31 | 8.0 | 25.7 | 0.00 | 0.00 | 0.00 | 47 | 1016.5 |
| 20260502113007 | 13 | 338 | 16.1 | 33.8 | 0.00 | 0.00 | 0.00 | 48 | 1016.5 |
| 20260502111507 | 12 | 336 | 9.7 | 29.0 | 0.00 | 0.00 | 0.00 | 51 | 1016.7 |
| 20260502110006 | 12 | 8 | 6.4 | 25.7 | 0.00 | 0.00 | 0.00 | 54 | 1016.7 |
| 20260502103004 | 12 | 41 | 8.0 | 41.8 | 0.00 | 0.00 | 0.00 | 53 | 1017.2 |
| 20260502101506 | 12 | 345 | 14.5 | 25.7 | 0.00 | 0.00 | 0.00 | 55 | 1017.0 |
| 20260502091506 | 13 | 0 | 12.9 | 30.6 | 0.00 | 0.00 | 0.00 | 54 | 1017.0 |
| 20260502070000 | 12 | 0 | 9.7 | 29.0 | 0.00 | 0.00 | 0.00 | 55 | 1016.6 |
| 20260502064458 | 12 | 289 | 11.3 | 27.4 | 0.00 | 0.00 | 0.00 | 53 | 1016.6 |
| 20260502062958 | 12 | 7 | 8.0 | 32.2 | 0.00 | 0.00 | 0.00 | 55 | 1016.1 |
| 20260502055958 | 11 | 78 | 14.5 | 25.7 | 0.00 | 0.00 | 0.00 | 60 | 1016.3 |
| 20260502054457 | 11 | 0 | 4.8 | 22.5 | 0.00 | 0.00 | 0.00 | 65 | 1016.4 |
| 20260502045955 | 11 | 63 | 6.4 | 24.1 | 0.00 | 0.00 | 0.00 | 67 | 1016.8 |
| 20260502044501 | 10 | 293 | 9.7 | 24.1 | 0.00 | 0.00 | 0.00 | 67 | 1016.7 |
| 20260502041453 | 10 | 59 | 8.0 | 19.3 | 0.00 | 0.00 | 0.00 | 71 | 1016.6 |
| 20260502035955 | 10 | 0 | 6.4 | 20.9 | 0.00 | 0.00 | 0.00 | 74 | 1016.8 |
| 20260502034452 | 10 | 30 | 4.8 | 19.3 | 0.00 | 0.00 | 0.00 | 75 | 1016.8 |
| 20260502032954 | 10 | 353 | 4.8 | 25.7 | 0.00 | 0.00 | 0.00 | 72 | 1016.7 |
| 20260502031455 | 10 | 355 | 4.8 | 25.7 | 0.00 | 0.00 | 0.00 | 70 | 1016.4 |